Regional Weather Roundup
Issued by NWS

Home | Current Version | Previous Version | Text Only | Print | Product List | Glossary On
Versions: 1 2 3 4 5 6 7 8 9 10 11 12 13 14 15 16 17 18 19 20 21 22 23 24 25 26 27 28 29 30 31 32 33 34 35 36 37 38 39 40 41 42 43 44 45 46 47 48 49 50
000
ASUS43 KMKX 240120
RWRWI

WISCONSIN REGIONAL WEATHER ROUNDUP
NATIONAL WEATHER SERVICE MILWAUKEE/SULLIVAN WI
700 PM CST THU NOV 23 2017

NOTE: "FAIR" INDICATES FEW OR NO CLOUDS BELOW 12,000 FEET WITH NO
SIGNIFICANT WEATHER AND/OR OBSTRUCTIONS TO VISIBILITY.

WIZ001-002-006>008-014>016-023>028-240200-
NORTHWEST WISCONSIN

CITY           SKY/WX    TMP DP  RH WIND       PRES   REMARKS
SUPERIOR ARPT  CLOUDY    35  26  69 SW5       29.66F WCI  31
ASHLAND        CLOUDY    38  23  55 S6        29.68F WCI  33
HAYWARD        CLOUDY    38  23  55 S9        29.71F WCI  31
SIREN          CLOUDY    39  24  54 S8        29.70F WCI  33
CUMBERLAND     CLOUDY    36  23  60 S9        29.71F WCI  29
RICE LAKE      CLOUDY    37  24  58 SE8       29.75F WCI  31
CHETEK         CLOUDY    36  23  59 SE5       29.75F WCI  32
LADYSMITH      CLOUDY    37  23  57 S5        29.76F WCI  33
EAU CLAIRE     PTCLDY    35  21  56 S7        29.77F WCI  29
MENOMONIE      PTCLDY    33  23  68 SE7       29.76F WCI  26
NEW RICHMOND   CLOUDY    37  24  58 S9        29.74F WCI  31
OSCEOLA        CLOUDY    39  25  57 S10       29.75F WCI  32
$$

WIZ003>005-009-010-017-018-240200-
NORTH CENTRAL WISCONSIN

CITY           SKY/WX    TMP DP  RH WIND       PRES   REMARKS
MANITOWISH WTR LGT RAIN  34  24  68 S7        29.72F WCI  27
ARBOR VITAE    CLOUDY    37  27  69 S6        29.74F WCI  32
WOODRUFF       CLOUDY    37  27  69 S6        29.74F WCI  32
RHINELANDER    CLOUDY    35  23  61 SW8       29.77F WCI  29
EAGLE RIVER    CLOUDY    34  22  61 S6        29.73F WCI  29
LAND O LAKES   CLOUDY    33  24  68 S3        29.75F
PHILLIPS       CLOUDY    34  22  62 S7        29.72F WCI  28
TOMAHAWK       CLOUDY    33  22  64 CALM      29.77F
MEDFORD        CLOUDY    32  23  70 S8        29.77F WCI  25
MERRILL        MOCLDY    33  23  66 S3        29.79F
$$

WIZ029-030-035-036-043>047-240200-
CENTRAL WISCONSIN

CITY           SKY/WX    TMP DP  RH WIND       PRES   REMARKS
WAUSAU         CLEAR     31  22  69 SE3       29.81F
MOSINEE        PTCLDY    32  21  64 SW3       29.84R
MARSHFIELD     CLEAR     31  21  66 S6        29.80F WCI  25
STEVENS POINT  CLEAR     27  19  73 CALM      29.86R
WAUPACA        CLEAR     32  22  65 SW3       29.86R
WAUTOMA        CLEAR     29  21  72 CALM      29.87R
WISC RAPIDS    CLEAR     29  21  72 CALM      29.86R
CAMP DOUGLAS   CLEAR     26  20  78 CALM      29.84S
$$

WIZ011>013-019>022-031-037>040-048>050-240200-
NORTHEAST WISCONSIN

CITY           SKY/WX    TMP DP  RH WIND       PRES   REMARKS
ANTIGO         CLOUDY    29  23  78 SW5       29.81F WCI  24
SHAWANO        CLOUDY    34  22  63 CALM      29.85R
OCONTO         CLOUDY    30  20  67 CALM      29.85S
STURGEON BAY   CLEAR     34  21  59 S6        29.85F WCI  29
GREEN BAY      CLOUDY    34  25  69 S6        29.85F WCI  29
MANITOWOC      CLEAR     30  23  75 S3        29.87F
APPLETON       PTCLDY    32  19  59 SW5       29.83S WCI  27
CLINTONVILLE   CLOUDY    30  21  69 SW3       29.84S
OSHKOSH        CLOUDY    32  23  69 S7        29.85F WCI  26
$$

WIZ032>034-041-042-053>061-240200-
SOUTHWEST WISCONSIN

CITY           SKY/WX    TMP DP  RH WIND       PRES   REMARKS
LA CROSSE      CLEAR     34  24  67 S8        29.83F WCI  27
SPARTA         CLEAR     27  21  77 E3        29.85F
VIROQUA        CLEAR     36  26  65 S7        29.83F WCI  31
BOSCOBEL       CLEAR     30  23  75 CALM      29.89S
PRAIRIE DU CHI CLEAR     32  24  70 CALM      29.87F
PLATTEVILLE    CLEAR     36  27  68 S8        29.88F WCI  30
$$

WIZ056-057-062-063-064-067-068-240200-
SOUTH CENTRAL WISCONSIN

CITY           SKY/WX    TMP DP  RH WIND       PRES   REMARKS
REEDSBURG      CLEAR     33  22  66 CALM      29.86F
BARABOO/DELLS  CLEAR     34  22  60 CALM      29.86S
LONE ROCK      NOT AVBL
MINERAL POINT  CLEAR     37  27  65 S5        29.87F WCI  34
MADISON        CLEAR     33  23  66 CALM      29.88S
MIDDLETON      CLEAR     31  26  84 CALM      29.88S
WATERTOWN      CLEAR     28  24  83 S3        29.86F
MONROE         CLEAR     34  25  69 SW9       29.89R WCI  26
JANESVILLE     CLEAR     34  25  69 S3        29.89F
$$

WIZ051-052-058>065-066-070>072-240200-
SOUTHEAST WISCONSIN

CITY           SKY/WX    TMP DP  RH WIND       PRES   REMARKS
MILWAUKEE      CLEAR     37  24  59 SW5       29.89F WCI  33
WAUKESHA       CLEAR     34  21  60 S3        29.90F
MILWAUKEE/TIMM CLEAR     36  19  51 S3        29.90F
RACINE         CLEAR     32  25  75 S5        29.92F WCI  27
BURLINGTON     CLOUDY    31  28  88 CALM      29.90S
KENOSHA        CLEAR     36  24  62 SW5       29.91F WCI  32
FOND DU LAC    CLOUDY    30  22  72 S6        29.86F WCI  24
SHEBOYGAN      CLEAR     32  23  69 S3        29.87F
WEST BEND      CLOUDY    30  23  74 CALM      29.88S
JUNEAU         CLEAR     34  23  63 S5        29.88F WCI  30
$$

LSZ147-162-240200-
LAKE SUPERIOR

STATION/POSITION TIME  TEMP    WIND        PRES    WAVE
                       AIR SEA DIR/SP/G            HT/PER
                 (UTC) (F)     (DEG/KT/KT) (MB)    (FT/S)
DEVILS ISLAND    0100   37     150/  4/  5 1005.7F
SAXON HARBOR     0030   33     150/  2/  4 1005.4F
$$

LMZ867-665-643>646-240200-
LAKE MICHIGAN

STATION/POSITION TIME  TEMP    WIND        PRES    WAVE
                       AIR SEA DIR/SP/G            HT/PER
                 (UTC) (F)     (DEG/KT/KT) (MB)    (FT/S)
N MID LAKE BUOY  0050   40 47  210/ 10/ 14 1011.8F   3/ 6
NORTHPORT PIER   0100   34     190/  3/  8 1010.2
KEWAUNEE LAKESHO 0100   36     180/  5/  7 1010.3
SHEBOYGAN LAKESH 0100   38     210/  6/  7 1012.0F
PORT WASHINGTON  0040   35     260/  4/  5 1013.2S
MILWAUKEE LAKESH 0100   40     220/  3/  4   N/A
S MID LAKE BUOY  0050   44 47  260/  8/ 10 1013.7F   2/ 4
KENOSHA   LAKESH 0100   40     220/  6/  7 1012.9
$$

TC  - TEMPERATURE IN CELSIUS
VSB - VISIBILITY IN STATUTE MILES
WCI - WIND CHILL INDEX
HX  - HEAT INDEX





USA.gov is the U.S. government's official web portal to all federal, state and local government web resources and services.